2023/08/16 00:00:00, 0.0,21.2
2023/08/16 00:10:00, 0.0,20.4
2023/08/16 00:20:00, 0.0,21.0
2023/08/16 00:30:00, 0.0,20.9
2023/08/16 00:40:00, 0.0,20.9
2023/08/16 00:50:00, 0.0,21.2
2023/08/16 01:00:00, 0.0,20.9
2023/08/16 01:10:00, 0.0,20.8
2023/08/16 01:20:00, 0.0,20.8
2023/08/16 01:30:00, 0.0,20.7
2023/08/16 01:40:00, 0.0,20.9
2023/08/16 01:50:00, 0.0,20.5
2023/08/16 02:00:00, 0.0,20.6
2023/08/16 02:10:00, 0.0,20.4
2023/08/16 02:20:00, 0.0,20.8
2023/08/16 02:30:00, 0.0,20.9
2023/08/16 02:40:00, 0.0,21.2
2023/08/16 02:50:00, 0.0,21.1
2023/08/16 03:00:00, 0.0,20.8
2023/08/16 03:10:00, 0.0,21.0
2023/08/16 03:20:00, 0.0,21.2
2023/08/16 03:30:00, 0.0,20.8
2023/08/16 03:40:00, 0.0,21.2
2023/08/16 03:50:00, 0.0,21.5
2023/08/16 04:00:00, 0.0,20.8
2023/08/16 04:10:00, 0.0,21.1
2023/08/16 04:20:00, 0.0,20.8
2023/08/16 04:30:00, 0.0,20.8
2023/08/16 04:40:00, 0.0,20.8
2023/08/16 04:50:00, 0.0,20.9
2023/08/16 05:00:00, 0.0,20.9
2023/08/16 05:10:00, 0.0,21.0
2023/08/16 05:20:00, 0.0,21.0
2023/08/16 05:30:00, 0.0,20.9
2023/08/16 05:40:00, 0.0,20.9
2023/08/16 05:50:00, 0.0,21.2
2023/08/16 06:00:00, 0.0,21.1
2023/08/16 06:10:00, 0.0,21.2
2023/08/16 06:20:00, 0.0,21.8
2023/08/16 06:30:00, 0.0,21.2
2023/08/16 06:40:00, 0.0,21.4
2023/08/16 06:50:00, 0.0,21.5
2023/08/16 07:00:00, 0.0,21.1
2023/08/16 07:10:00, 0.0,21.7
2023/08/16 07:20:00, 0.0,23.6
2023/08/16 07:30:00, 0.0,22.8
2023/08/16 07:40:00, 0.0,22.4
2023/08/16 07:50:00, 0.0,22.7
2023/08/16 08:00:00, 0.3,24.3
2023/08/16 08:10:00, 0.3,24.7
2023/08/16 08:20:00, 0.4,29.8
2023/08/16 08:30:00, 0.2,27.8
2023/08/16 08:40:00, 0.4,24.8
2023/08/16 08:50:00, 0.5,24.5
2023/08/16 09:00:00, 0.7,24.6
2023/08/16 09:10:00,19.2,25.2
2023/08/16 09:20:00,11.5,24.7
2023/08/16 09:30:00,11.4,24.7
2023/08/16 09:40:00,---,24.4
2023/08/16 09:50:00,42.6,25.8
2023/08/16 10:00:00,42.8,26.2
2023/08/16 10:10:00,55.4,25.6
2023/08/16 10:20:00,55.3,25.4
2023/08/16 10:30:00,55.3,26.4
2023/08/16 10:40:00,55.3,26.7
2023/08/16 10:50:00,---,27.9
2023/08/16 11:00:00,---,28.9
